Location: Tr�vern
(48.0333°N, 4.6000°W)
Time: 18:01:50
(UTC+00:00)

Cosmos 2173 Rocket - Pass Details

Date: 14 July 2020
Orbit: 944 x 1002 km, 83.0° (Epoch: 12 August)

Event Time Altitude Azimuth Distance (km) Brightness Sun altitude
Exits shadow 01:43:02 27° 181° (S) 1,796 4.8 -18.1°
Maximum altitude 01:46:42 82° 97° (E) 1,008 4.0 -17.9°
Drops below altitude 10° 01:53:01 10° 11° (N) 2,751 7.6 -17.6°
Sets 01:55:32 0° 10° (N) 3,695 8.6 -17.4°
